CST,Max TemperatureF,Mean TemperatureF,Min TemperatureF,Max Dew PointF,MeanDew PointF,Min DewpointF,Max Humidity, Mean Humidity, Min Humidity, Max Sea Level PressureIn, Mean Sea Level PressureIn, Min Sea Level PressureIn, Max VisibilityMiles, Mean VisibilityMiles, Min VisibilityMiles, Max Wind SpeedMPH, Mean Wind SpeedMPH, Max Gust SpeedMPH,PrecipitationIn, CloudCover, Events, WindDirDegrees
2013-11-1,52,42,34,40,36,32,92,76,55,29.78,29.60,29.42,10,10,10,16,7,20,0.00,6,,272
2013-11-2,47,38,29,35,31,28,94,77,50,30.16,30.00,29.79,10,10,7,10,2,,0.00,4,,314
2013-11-3,52,39,26,34,30,25,95,71,44,30.24,30.16,30.08,10,10,10,14,4,22,0.00,0,,123
2013-11-4,52,48,45,46,38,32,92,70,56,30.15,30.05,29.98,10,10,3,17,9,24,0.00,5,Rain,140
2013-11-5,54,45,36,54,43,35,97,97,88,30.25,30.06,29.77,10,4,0,15,2,23,1.00,7,Fog-Rain,135
2013-11-6,54,42,30,54,31,19,97,74,37,30.22,30.00,29.75,10,9,3,20,11,26,0.29,4,Rain,304
2013-11-7,43,35,27,30,27,24,92,77,54,30.26,30.23,30.19,10,10,7,15,3,23,0.00,3,,281
2013-11-8,49,36,24,32,27,23,94,67,37,30.26,30.07,29.73,10,9,5,15,4,29,0.00,3,,133
2013-11-9,51,44,36,38,33,24,73,63,49,30.19,29.94,29.74,10,10,10,29,11,38,0.00,4,,260
2013-11-10,46,40,33,30,28,26,76,60,45,30.36,30.26,30.13,10,10,10,15,9,22,0.00,4,,258
2013-11-11,46,34,21,32,23,11,94,67,53,30.64,30.32,30.07,10,9,1,20,8,23,0.05,5,Rain-Snow,315
2013-11-12,28,22,15,13,12,10,80,67,51,30.78,30.69,30.58,10,10,10,12,6,,0.00,0,,285
2013-11-13,44,31,18,21,14,12,78,50,30,30.57,30.28,30.05,10,10,10,18,4,24,0.00,0,,194
2013-11-14,48,41,34,28,24,16,67,49,42,30.04,29.92,29.86,10,10,10,13,4,17,0.00,2,,208
2013-11-15,55,41,27,35,31,24,90,68,47,29.92,29.86,29.81,10,10,10,7,2,,0.00,0,,144
2013-11-16,61,50,39,56,46,32,96,86,73,29.81,29.55,29.34,10,7,2,18,8,29,0.96,6,Rain,133
2013-11-17,59,48,37,54,43,29,97,83,70,29.80,29.47,29.26,10,9,2,23,8,36,0.41,7,Rain,276
2013-11-18,39,32,25,29,25,22,89,69,53,30.28,30.08,29.81,10,10,10,25,14,36,0.00,4,,284
2013-11-19,42,32,22,28,24,20,93,73,46,30.32,30.24,30.14,10,10,10,14,4,16,0.00,1,,115
2013-11-20,39,37,35,34,30,26,90,74,62,30.14,30.08,30.02,10,9,4,13,8,22,0.00,8,Rain,123
2013-11-21,41,36,32,37,35,29,95,86,76,30.34,30.18,30.06,10,6,1,17,3,23,0.00,8,Rain-Snow,326
2013-11-22,33,27,21,29,20,13,90,71,48,30.54,30.48,30.34,10,9,2,16,10,22,0.01,3,Snow,301
2013-11-23,23,17,11,15,5,0,72,60,43,30.77,30.68,30.49,10,10,10,17,10,25,0.00,2,,314
2013-11-24,27,17,7,8,4,-1,84,57,31,30.73,30.53,30.25,10,10,10,16,4,23,0.00,0,,190
2013-11-25,33,28,23,26,21,6,88,71,43,30.24,30.09,30.02,10,9,1,14,8,22,0.01,7,Snow,218
2013-11-26,34,25,16,25,13,2,76,57,40,30.29,30.15,30.04,10,10,10,23,9,30,0.00,4,,304
2013-11-27,26,18,11,11,7,3,73,60,46,30.34,30.27,30.17,10,10,10,10,4,,0.00,2,,286
2013-11-28,32,22,13,16,12,9,86,67,49,30.51,30.27,30.11,10,10,10,12,4,16,0.00,2,,327
2013-11-29,32,21,10,20,15,8,89,72,54,30.59,30.47,30.28,10,10,10,13,2,17,0.00,0,,129
2013-11-30,43,34,26,28,24,19,92,71,51,30.26,30.11,30.02,10,10,7,8,4,,0.00,0,,155